Simultaneous Nadir Overpasses (SNOs) Predictions

Prediction of SNOs between FY3D and TERRA Satellite Orbit:

Table of predicted SNOs for the next 14.0 days since TLE Epoch: 8/22/2020
Index Date (FY3D) Time (FY3D) Lat,Lon (FY3D) SZA (FY3D ) Date (TERRA) Time (TERRA) Lat,Lon (TERRA) SZA (TERRA ) Distance(km) Time Diff (sec)
1 08/24/2020 00:03:04 -68.97, -1.41 122.15 08/24/2020 00:03:35 -68.95, -1.40 122.17 1.87 31
2 08/24/2020 00:53:48 68.87, 166.04 57.76 08/24/2020 00:53:02 68.85, 166.11 57.74 3.60 46
3 08/26/2020 16:19:26 -68.97, 114.50 121.22 08/26/2020 16:20:03 -68.96, 114.48 121.24 1.85 37
4 08/26/2020 17:10:10 68.87, -78.05 58.69 08/26/2020 17:09:30 68.85, -78.01 58.67 2.93 40
5 08/29/2020 08:35:49 -68.98,-129.59 120.27 08/29/2020 08:36:32 -68.96,-129.64 120.29 2.92 43
6 08/29/2020 09:26:33 68.87, 37.86 59.64 08/29/2020 09:25:59 68.85, 37.87 59.61 3.21 34
7 09/01/2020 00:52:12 -68.98, -13.68 119.30 09/01/2020 00:53:00 -69.01, -13.69 119.28 2.75 48
8 09/01/2020 01:42:56 68.88, 153.77 60.61 09/01/2020 01:42:27 68.89, 153.81 60.62 2.16 29
9 09/01/2020 02:33:20 -67.85, -37.58 120.41 09/01/2020 02:32:13 -67.90, -39.76 120.36 91.57 67
10 09/03/2020 17:08:35 -68.99, 102.22 118.32 09/03/2020 17:09:29 -68.99, 102.17 118.31 2.33 54
11 09/03/2020 17:59:19 68.88, -90.32 61.59 09/03/2020 17:58:56 68.88, -90.33 61.59 0.71 23
12 09/03/2020 18:49:47 -68.07, 78.06 119.21 09/03/2020 18:48:38 -68.11, 76.36 119.17 70.44 69
